Location: Newark
(35.6799°N, 139.7636°E)
Time: 21:58:59
(UTC+00:00)

Explorer 7 - Pass Details

Date: 11 December 2019
Orbit: 485 x 679 km, 50.3° (Epoch: 19 January)

Event Time Altitude Azimuth Distance (km) Brightness Sun altitude
Rises 08:35:17 0° 293° (WNW) 3,022 11.4 -13.4°
Reaches altitude 10° 08:38:38 10° 317° (NW) 2,117 10.1 -14.1°
Maximum altitude 08:41:27 15° 352° (N) 1,799 9.3 -14.6°
Enters shadow 08:43:50 11° 23° (NNE) 2,027 9.3 -15.1°
Drops below altitude 10° 08:44:16 10° 27° (NNE) 2,110 - -15.1°
Sets 08:47:37 0° 51° (NE) 3,007 - -15.8°
